Погода в Рождественке

Россия / Тюменская область     55°42′10″N   69°59′29″E
темп.,
°C
ветер,
м/с
пор.,
м/с
влажн.,
%
обл.,
%
осадки,
мм/ч
давл.,
гПа
погр.,
м
28 июня, вт
вт2823:00+8з37937 0.1 1006158
02:00+7зюз379662 0.0 1006131
05:00+9юз4987100 0.0 1005261
08:00+11ююз41080100 0.0 1004430
11:00+11ююз61394100 1.6 1003552
14:00+11ююз51196100 2.2 1002666
17:00+12юз3797100 3.1 1001433
20:00+12зсз2495100 0.3 1000179
29 июня, ср
ср2923:00+10сз4995100 0.4 1000383
02:00+8зсз3896100 0.0 999237
05:00+7з5896100 0.0 999414
08:00+7зсз6894100 0.3 998577
11:00+8зсз588999 1.9 998932
14:00+9з7882100 0.8 9981036
17:00+7з4792100 1.1 998520
20:00+7сз4892100 0.3 998509
30 июня, чт
чт3023:00+6зсз51193100 0.3 999401
02:00+7зсз71296100 0.1 999602
05:00+7зсз7149175 0.1 1000704
08:00+11зсз7117710 0.0 1001762
11:00+15зсз8115989 0.0 10011766
14:00+14сз71264100 0.1 10031890
17:00+15зсз51167100 0.1 10031691
20:00+12зсз510730 0.0 1004393
1 июля, пт
пт123:00+7зсз411910 0.0 1006243
02:00+6з513940 0.0 1006330
05:00+6з5129573 0.0 1006322
08:00+9з61186100 0.0 1007394
11:00+13зсз697235 0.0 1007759
14:00+16сз7965100 0.3 10071473
17:00+12ссз3783100 0.6 1009323
20:00+11зсз3982100 0.0 1009372
2 июля, сб
сб223:00+10зсз3782100 0.0 1009247
02:00+10з368599 0.1 1008196
05:00+9з3693100 0.4 1008178
08:00+12з469094 0.4 1007329
11:00+15зсз457594 0.6 1006748
14:00+15зсз4571100 0.3 1006969
17:00+16ссз456897 0.8 10041048
20:00+13ссз358373 0.2 1004139